This is the latest recevied weather packets stored in our database for station/object N3MFL. If no packets are shown the sender has not sent any weather packets the latest 10 day(s).
| Time | Temp. | Humidity | Pressure | Rain* | Wind** | Luminosity | Snow |
|---|---|---|---|---|---|---|---|
| 1777675934 | 16.67° C | 31% | 1010.4 hPa | 0 mm | - | 26 W/m² | - |
| 1777675629 | 16.67° C | 32% | 1010.2 hPa | 0 mm | - | 30 W/m² | - |
| 1777675328 | 16.67° C | 31% | 1010.1 hPa | 0 mm | - | 39 W/m² | - |
| 1777675023 | 16.11° C | 32% | 1010.2 hPa | 0 mm | - | 38 W/m² | - |
| 1777674720 | 16.67° C | 32% | 1010.2 hPa | 0 mm | - | 32 W/m² | - |
| 1777674416 | 16.67° C | 31% | 1009.9 hPa | 0 mm | - | 34 W/m² | - |
| 1777674114 | 17.22° C | 34% | 1010 hPa | 0 mm | - | 34 W/m² | - |
| 1777673810 | 17.22° C | 33% | 1009.8 hPa | 0 mm | - | 45 W/m² | - |
| 1777673507 | 17.78° C | 31% | 1009.8 hPa | 0 mm | - | 120 W/m² | - |
| 1777673205 | 18.33° C | 30% | 1009.9 hPa | 0 mm | - | 133 W/m² | - |
| 1777672902 | 18.33° C | 30% | 1009.9 hPa | 0 mm | - | 147 W/m² | - |
| 1777672599 | 18.33° C | 33% | 1009.9 hPa | 0 mm | - | 160 W/m² | - |
| 1777672294 | 18.33° C | 30% | 1009.7 hPa | 0 mm | - | 174 W/m² | - |
| 1777671989 | 18.33° C | 31% | 1009.7 hPa | 0 mm | - | 189 W/m² | - |
| 1777671684 | 18.89° C | 30% | 1009.8 hPa | 0 mm | - | 205 W/m² | - |
| 1777671382 | 18.89° C | 30% | 1009.9 hPa | 0 mm | - | 217 W/m² | - |
| 1777671078 | 18.89° C | 32% | 1009.8 hPa | 0 mm | - | 231 W/m² | - |
| 1777670775 | 18.33° C | 30% | 1009.8 hPa | 0 mm | - | 246 W/m² | - |
| 1777670471 | 18.89° C | 31% | 1009.7 hPa | 0 mm | - | 261 W/m² | - |
| 1777670168 | 18.89° C | 32% | 1009.6 hPa | 0 mm | - | 274 W/m² | - |
| 1777669866 | 18.89° C | 31% | 1009.7 hPa | 0 mm | - | 290 W/m² | - |
| 1777669562 | 18.33° C | 32% | 1009.6 hPa | 0 mm | - | 306 W/m² | - |
| 1777669259 | 18.33° C | 31% | 1009.7 hPa | 0 mm | - | 319 W/m² | - |
| 1777668955 | 17.78° C | 30% | 1009.7 hPa | 0 mm | - | 335 W/m² | - |
| 1777668653 | 18.33° C | 33% | 1009.7 hPa | 0 mm | - | 351 W/m² | - |
* Rain latest hour (hover to see other rain measurements)
** Current wind speed in m/s (hover to see current wind gust speed)